WN8IZV Weather Reports


Display with metric or nautical units.
time (UTC)temp
F
wind
direction
speed
MPH
gust
MPH
rain 1hr
in
rain 24hr
in
rain mn
in
humidity
%
barometer
mb
20260510051652 51 359 0.0 2.0 0.00 0.06 0.00 67 1010.1
20260510050054 52 4 0.0 3.0 0.00 0.06 0.00 67 1009.9
20260510044548 53 15 1.0 6.0 0.00 0.06 0.00 67 1009.6
20260510043110 53 6 0.0 5.0 0.00 0.06 0.00 67 1009.4
20260510041541 54 31 2.0 6.0 0.00 0.06 0.00 67 1009.1
20260510040034 54 294 2.0 7.0 0.00 0.06 0.00 67 1008.9
20260510034531 55 38 3.0 9.0 0.00 0.06 0.06 67 1008.6
20260510033028 56 53 4.0 10.0 0.00 0.06 0.06 68 1008.3
20260510031536 57 326 4.0 12.0 0.00 0.06 0.06 68 1008.1
20260510030021 59 346 5.0 11.0 0.00 0.06 0.06 68 1007.8
20260510024519 60 296 4.0 9.0 0.00 0.06 0.06 68 1007.6
20260510023033 60 319 5.0 12.0 0.00 0.06 0.06 68 1007.1
20260510021516 60 288 0.0 2.0 0.00 0.06 0.06 68 1006.4
20260510020013 61 335 0.0 0.0 0.00 0.06 0.06 68 1005.9
20260510014510 61 343 0.0 2.0 0.00 0.06 0.06 68 1005.6
20260510013012 62 313 0.0 1.0 0.00 0.06 0.06 69 1005.2
20260510011512 62 329 0.0 2.0 0.00 0.06 0.06 69 1004.8
20260510010011 63 276 0.0 2.0 0.00 0.06 0.06 69 1004.6
20260510004504 64 316 0.0 3.0 0.00 0.06 0.06 69 1004.4
20260510003107 65 304 1.0 4.0 0.00 0.06 0.06 69 1004.1
20260510001557 66 257 2.0 7.0 0.00 0.06 0.06 70 1003.9
20260510000055 67 300 1.0 6.0 0.00 0.06 0.06 70 1003.6
20260509234553 68 305 2.0 7.0 0.00 0.06 0.06 70 1003.6
20260509233050 69 44 4.0 11.0 0.00 0.06 0.06 71 1003.5
20260509231557 69 120 3.0 9.0 0.00 0.06 0.06 71 1003.4
20260509230045 69 284 6.0 16.0 0.00 0.06 0.06 71 1003.1
20260509224542 70 345 3.0 16.0 0.00 0.06 0.06 72 1002.8
20260509223039 70 277 4.0 12.0 0.00 0.06 0.06 72 1002.3
20260509221538 70 286 2.0 9.0 0.00 0.06 0.06 72 1002.2
20260509220036 70 285 5.0 14.0 0.00 0.06 0.06 73 1002.0
20260509214530 71 292 4.0 16.0 0.00 0.06 0.06 73 1001.7
20260509213029 70 282 3.0 14.0 0.00 0.06 0.06 74 1001.5
20260509211551 70 246 1.0 9.0 0.00 0.06 0.06 74 1001.5
20260509210022 69 264 4.0 13.0 0.00 0.06 0.06 74 1001.8
20260509204521 68 270 3.0 8.0 0.00 0.06 0.06 74 1002.0
20260509203118 67 199 2.0 8.0 0.00 0.06 0.06 74 1002.2
20260509201520 66 304 2.0 7.0 0.05 0.06 0.06 74 1002.6
20260509200015 62 262 2.0 7.0 0.06 0.06 0.06 73 1002.5
20260509194511 60 219 0.0 3.0 0.06 0.06 0.06 72 1002.8
20260509193010 58 276 1.0 16.0 0.06 0.06 0.06 72 1002.8
20260509191507 65 274 9.0 15.0 0.01 0.01 0.01 73 1003.1
20260509190006 68 175 4.0 9.0 0.00 0.00 0.00 74 1001.7
20260509184502 69 205 3.0 9.0 0.00 0.00 0.00 74 1001.4
20260509181609 71 194 5.0 10.0 0.00 0.00 0.00 75 1001.5
20260509180053 69 268 3.0 12.0 0.00 0.00 0.00 75 1002.0
20260509174553 69 219 6.0 13.0 0.00 0.00 0.00 75 1002.1
20260509173052 69 180 4.0 13.0 0.00 0.00 0.00 75 1002.0
20260509171547 68 227 4.0 13.0 0.00 0.00 0.00 75 1002.3
20260509170042 67 238 6.0 14.0 0.00 0.00 0.00 76 1002.3
20260509164539 68 184 5.0 13.0 0.00 0.00 0.00 76 1002.5
20260509163049 68 207 3.0 13.0 0.00 0.00 0.00 76 1002.6
20260509161534 68 201 6.0 15.0 0.00 0.00 0.00 77 1002.7
20260509160029 67 202 5.0 9.0 0.00 0.00 0.00 77 1002.9
20260509154524 66 187 5.0 14.0 0.00 0.00 0.00 77 1003.2
20260509153022 65 160 6.0 11.0 0.00 0.00 0.00 77 1003.0
20260509151514 64 221 5.0 12.0 0.00 0.00 0.00 77 1003.4
20260509150010 64 167 3.0 8.0 0.00 0.00 0.00 77 1003.7
20260509144507 63 195 2.0 8.0 0.00 0.00 0.00 77 1003.9
20260509143004 62 217 2.0 8.0 0.00 0.00 0.00 78 1004.0
20260509141559 60 186 1.0 7.0 0.00 0.00 0.00 78 1004.2
20260509134554 58 140 1.0 6.0 0.00 0.00 0.00 77 1004.7
20260509133057 57 205 2.0 6.0 0.00 0.00 0.00 77 1005.0
20260509131542 55 184 2.0 9.0 0.00 0.00 0.00 77 1005.1
20260509130037 54 221 1.0 6.0 0.00 0.00 0.00 77 1005.0
20260509124532 53 264 2.0 5.0 0.00 0.00 0.00 77 1004.7
20260509123029 52 206 2.0 5.0 0.00 0.00 0.00 77 1004.9
20260509121529 52 186 2.0 5.0 0.00 0.00 0.00 77 1004.9
20260509120025 51 156 2.0 7.0 0.00 0.00 0.00 76 1005.5
20260509114522 51 183 1.0 4.0 0.00 0.00 0.00 76 1005.7
20260509113020 50 232 2.0 7.0 0.00 0.00 0.00 76 1005.6
20260509111519 50 212 1.0 4.0 0.00 0.00 0.00 76 1005.6
20260509110017 49 199 1.0 4.0 0.00 0.00 0.00 75 1005.6
20260509104514 46 207 0.0 0.0 0.00 0.00 0.00 75 1005.6
20260509103013 46 207 0.0 1.0 0.00 0.00 0.00 75 1005.4
20260509101511 45 207 0.0 0.0 0.00 0.00 0.00 74 1005.2
20260509100009 45 207 0.0 0.0 0.00 0.00 0.00 74 1005.3
20260509094506 46 207 0.0 0.0 0.00 0.00 0.00 74 1005.4
20260509093002 47 207 0.0 0.0 0.00 0.00 0.00 74 1005.3
20260509091600 47 214 0.0 0.0 0.00 0.00 0.00 74 1005.5
20260509090057 47 214 0.0 0.0 0.00 0.00 0.00 74 1005.7
20260509084558 46 217 0.0 0.0 0.00 0.00 0.00 74 1005.8
20260509083051 46 219 0.0 0.0 0.00 0.00 0.00 74 1005.8
20260509081547 47 219 0.0 0.0 0.00 0.00 0.00 74 1005.8
20260509080105 48 219 0.0 0.0 0.00 0.00 0.00 74 1005.8
20260509074543 48 167 0.0 1.0 0.00 0.00 0.00 73 1005.8
20260509073117 48 128 0.0 0.0 0.00 0.00 0.00 73 1005.9
20260509071536 48 128 0.0 0.0 0.00 0.00 0.00 73 1006.1
20260509070033 48 165 0.0 0.0 0.00 0.00 0.00 73 1006.1
20260509064529 48 167 0.0 0.0 0.00 0.00 0.00 72 1006.3
20260509063030 49 179 0.0 0.0 0.00 0.00 0.00 72 1006.5
20260509061524 48 174 0.0 0.0 0.00 0.00 0.00 72 1006.6
20260509060020 48 174 0.0 0.0 0.00 0.00 0.00 72 1006.8
20260509054527 49 174 0.0 0.0 0.00 0.00 0.00 72 1007.0
20260509053013 50 174 0.0 0.0 0.00 0.00 0.00 72 1007.2